Terminal Aerodrome Forecast
Issued by NWS Missoula, MT

Home | Current Version | Previous Version | Text Only | Print | Product List | Glossary On
Versions: 1 2 3 4 5 6 7 8 9 10 11 12
000
FTUS45 KMSO 291100
TAFBTM
TAF
KBTM 291120Z 2912/3012 VRB04KT P6SM SCT150
     FM292200 09010KT P6SM VCTS BKN100CB
     FM300100 VRB06KT P6SM SCT100=

USA.gov is the U.S. government's official web portal to all federal, state and local government web resources and services.